| time (UTC) | temp F | wind direction | speed MPH | gust MPH | rain 1hr in | rain 24hr in | rain mn in | humidity % | barometer mb |
| 20260507144003 | 60 | 154 | 1.0 | 3.0 | 0.00 | 0.00 | 0.00 | 49 | 1011.7 |
| 20260507143505 | 60 | 149 | 1.0 | 4.0 | 0.00 | 0.00 | 0.00 | 49 | 1011.7 |
| 20260507143003 | 60 | 158 | 1.0 | 4.0 | 0.00 | 0.00 | 0.00 | 49 | 1011.9 |
| 20260507142504 | 60 | 159 | 1.0 | 4.0 | 0.00 | 0.00 | 0.00 | 49 | 1011.9 |
| 20260507142003 | 60 | 162 | 2.0 | 5.0 | 0.00 | 0.00 | 0.00 | 49 | 1011.8 |
| 20260507141503 | 60 | 160 | 2.0 | 5.0 | 0.00 | 0.00 | 0.00 | 49 | 1011.9 |
| 20260507141003 | 60 | 159 | 1.0 | 5.0 | 0.00 | 0.00 | 0.00 | 48 | 1011.9 |
| 20260507140503 | 60 | 163 | 2.0 | 4.0 | 0.00 | 0.00 | 0.00 | 49 | 1012.0 |
| 20260507140003 | 61 | 162 | 2.0 | 4.0 | 0.00 | 0.00 | 0.00 | 48 | 1012.2 |
| 20260507135503 | 61 | 155 | 1.0 | 4.0 | 0.00 | 0.00 | 0.00 | 48 | 1012.0 |
| 20260507135215 | 61 | 148 | 1.0 | 3.0 | 0.00 | 0.00 | 0.00 | 47 | 1012.0 |
| 20260507134503 | 61 | 142 | 1.0 | 3.0 | 0.00 | 0.00 | 0.00 | 44 | 1012.0 |
| 20260507134216 | 61 | 148 | 1.0 | 3.0 | 0.00 | 0.00 | 0.00 | 45 | 1011.9 |
| 20260507133503 | 62 | 170 | 1.0 | 5.0 | 0.00 | 0.00 | 0.00 | 44 | 1011.8 |
| 20260507133212 | 62 | 167 | 2.0 | 5.0 | 0.00 | 0.00 | 0.00 | 42 | 1011.9 |
| 20260507132715 | 62 | 154 | 2.0 | 4.0 | 0.00 | 0.00 | 0.00 | 42 | 1011.8 |
| 20260507132003 | 63 | 150 | 2.0 | 6.0 | 0.00 | 0.00 | 0.00 | 41 | 1012.0 |
| 20260507131503 | 64 | 133 | 1.0 | 6.0 | 0.00 | 0.00 | 0.00 | 41 | 1011.9 |
| 20260507131003 | 63 | 119 | 1.0 | 4.0 | 0.00 | 0.00 | 0.00 | 39 | 1011.9 |
| 20260507130503 | 64 | 148 | 1.0 | 4.0 | 0.00 | 0.00 | 0.00 | 38 | 1011.8 |
| 20260507130215 | 63 | 149 | 1.0 | 4.0 | 0.00 | 0.00 | 0.00 | 40 | 1011.9 |
| 20260507125503 | 62 | 129 | 1.0 | 4.0 | 0.00 | 0.00 | 0.00 | 40 | 1011.9 |
| 20260507125003 | 62 | 120 | 1.0 | 4.0 | 0.00 | 0.00 | 0.00 | 40 | 1011.9 |
| 20260507124503 | 62 | 127 | 1.0 | 4.0 | 0.00 | 0.00 | 0.00 | 41 | 1012.0 |
| 20260507124217 | 64 | 154 | 1.0 | 4.0 | 0.00 | 0.00 | 0.00 | 40 | 1012.0 |
| 20260507123503 | 63 | 146 | 1.0 | 3.0 | 0.00 | 0.00 | 0.00 | 41 | 1012.1 |
| 20260507123003 | 63 | 141 | 1.0 | 5.0 | 0.00 | 0.00 | 0.00 | 42 | 1012.1 |
| 20260507122503 | 63 | 141 | 1.0 | 5.0 | 0.00 | 0.00 | 0.00 | 41 | 1011.9 |
| 20260507122004 | 63 | 152 | 1.0 | 7.0 | 0.00 | 0.00 | 0.00 | 41 | 1012.2 |
| 20260507121503 | 62 | 165 | 2.0 | 7.0 | 0.00 | 0.00 | 0.00 | 41 | 1012.1 |
| 20260507121003 | 64 | 162 | 1.0 | 5.0 | 0.00 | 0.00 | 0.00 | 40 | 1012.2 |
| 20260507120503 | 63 | 126 | 1.0 | 3.0 | 0.00 | 0.00 | 0.00 | 44 | 1012.4 |
| 20260507120004 | 62 | 109 | 1.0 | 3.0 | 0.00 | 0.00 | 0.00 | 48 | 1012.1 |
| 20260507115503 | 64 | 123 | 1.0 | 3.0 | 0.00 | 0.00 | 0.00 | 44 | 1012.2 |
| 20260507115003 | 64 | 158 | 1.0 | 5.0 | 0.00 | 0.00 | 0.00 | 42 | 1012.4 |
| 20260507114503 | 64 | 155 | 1.0 | 5.0 | 0.00 | 0.00 | 0.00 | 43 | 1012.2 |
| 20260507114003 | 62 | 141 | 1.0 | 4.0 | 0.00 | 0.00 | 0.00 | 42 | 1012.3 |
| 20260507113503 | 63 | 139 | 1.0 | 4.0 | 0.00 | 0.00 | 0.00 | 42 | 1012.4 |
| 20260507113214 | 62 | 134 | 1.0 | 5.0 | 0.00 | 0.00 | 0.00 | 46 | 1012.5 |
| 20260507112503 | 62 | 161 | 1.0 | 5.0 | 0.00 | 0.00 | 0.00 | 44 | 1012.4 |
| 20260507112004 | 63 | 164 | 1.0 | 4.0 | 0.00 | 0.00 | 0.00 | 49 | 1012.4 |
| 20260507111504 | 61 | 163 | 1.0 | 5.0 | 0.00 | 0.00 | 0.00 | 51 | 1012.4 |
| 20260507111003 | 61 | 159 | 1.0 | 5.0 | 0.00 | 0.00 | 0.00 | 51 | 1012.5 |
| 20260507110504 | 61 | 144 | 1.0 | 3.0 | 0.00 | 0.00 | 0.00 | 53 | 1012.4 |
| 20260507110003 | 60 | 118 | 1.0 | 3.0 | 0.00 | 0.00 | 0.00 | 53 | 1012.4 |
| 20260507105503 | 58 | 82 | 1.0 | 3.0 | 0.00 | 0.00 | 0.00 | 56 | 1012.6 |
| 20260507105003 | 57 | 106 | 1.0 | 3.0 | 0.00 | 0.00 | 0.00 | 54 | 1012.5 |
| 20260507104504 | 58 | 123 | 1.0 | 3.0 | 0.00 | 0.00 | 0.00 | 55 | 1012.6 |
| 20260507104004 | 59 | 126 | 1.0 | 4.0 | 0.00 | 0.00 | 0.00 | 56 | 1012.4 |
| 20260507103503 | 58 | 109 | 1.0 | 4.0 | 0.00 | 0.00 | 0.00 | 60 | 1012.6 |
| 20260507103214 | 58 | 104 | 1.0 | 3.0 | 0.00 | 0.00 | 0.00 | 60 | 1012.7 |
| 20260507102503 | 56 | 106 | 1.0 | 3.0 | 0.00 | 0.00 | 0.00 | 63 | 1012.6 |
| 20260507102215 | 56 | 108 | 1.0 | 3.0 | 0.00 | 0.00 | 0.00 | 62 | 1012.8 |
| 20260507101503 | 55 | 111 | 2.0 | 3.0 | 0.00 | 0.00 | 0.00 | 64 | 1012.7 |
| 20260507101003 | 55 | 110 | 1.0 | 3.0 | 0.00 | 0.00 | 0.00 | 66 | 1012.8 |
| 20260507100504 | 55 | 117 | 1.0 | 2.0 | 0.00 | 0.00 | 0.00 | 65 | 1013.0 |
| 20260507100003 | 55 | 124 | 1.0 | 2.0 | 0.00 | 0.00 | 0.00 | 65 | 1013.0 |
| 20260507095503 | 54 | 123 | 1.0 | 2.0 | 0.00 | 0.00 | 0.00 | 66 | 1012.9 |
| 20260507095003 | 54 | 126 | 1.0 | 3.0 | 0.00 | 0.00 | 0.00 | 67 | 1013.1 |
| 20260507094504 | 54 | 146 | 1.0 | 4.0 | 0.00 | 0.00 | 0.00 | 67 | 1013.0 |
| 20260507094004 | 54 | 138 | 1.0 | 4.0 | 0.00 | 0.00 | 0.00 | 68 | 1012.9 |
| 20260507093503 | 54 | 114 | 1.0 | 2.0 | 0.00 | 0.00 | 0.00 | 68 | 1013.2 |
| 20260507093003 | 53 | 117 | 1.0 | 3.0 | 0.00 | 0.00 | 0.00 | 69 | 1013.0 |
| 20260507092503 | 53 | 114 | 1.0 | 3.0 | 0.00 | 0.00 | 0.00 | 69 | 1012.9 |
| 20260507092003 | 53 | 106 | 1.0 | 2.0 | 0.00 | 0.00 | 0.00 | 68 | 1012.9 |
| 20260507091504 | 52 | 100 | 1.0 | 2.0 | 0.00 | 0.00 | 0.00 | 69 | 1012.9 |
| 20260507091003 | 51 | 96 | 1.0 | 2.0 | 0.00 | 0.00 | 0.00 | 71 | 1013.0 |
| 20260507090504 | 51 | 119 | 1.0 | 3.0 | 0.00 | 0.00 | 0.00 | 70 | 1013.0 |
| 20260507090004 | 52 | 124 | 1.0 | 3.0 | 0.00 | 0.00 | 0.00 | 69 | 1013.0 |
| 20260507085503 | 51 | 104 | 1.0 | 3.0 | 0.00 | 0.00 | 0.00 | 72 | 1013.0 |
| 20260507085003 | 50 | 97 | 1.0 | 2.0 | 0.00 | 0.00 | 0.00 | 73 | 1012.9 |
| 20260507084717 | 51 | 99 | 1.0 | 3.0 | 0.00 | 0.00 | 0.00 | 73 | 1012.9 |
| 20260507084214 | 50 | 105 | 1.0 | 3.0 | 0.00 | 0.00 | 0.00 | 74 | 1012.9 |
| 20260507083503 | 50 | 108 | 1.0 | 3.0 | 0.00 | 0.00 | 0.00 | 74 | 1013.0 |
| 20260507083215 | 50 | 105 | 1.0 | 3.0 | 0.00 | 0.00 | 0.00 | 75 | 1013.0 |
| 20260507082504 | 50 | 101 | 1.0 | 2.0 | 0.00 | 0.00 | 0.00 | 76 | 1012.8 |
| 20260507082003 | 49 | 101 | 1.0 | 3.0 | 0.00 | 0.00 | 0.00 | 76 | 1012.8 |
| 20260507081503 | 49 | 100 | 1.0 | 4.0 | 0.00 | 0.00 | 0.00 | 76 | 1012.9 |
| 20260507081003 | 49 | 94 | 1.0 | 4.0 | 0.00 | 0.00 | 0.00 | 77 | 1012.9 |
| 20260507080504 | 48 | 92 | 1.0 | 2.0 | 0.00 | 0.00 | 0.00 | 77 | 1012.9 |
| 20260507080213 | 49 | 98 | 1.0 | 3.0 | 0.00 | 0.00 | 0.00 | 79 | 1012.6 |
| 20260507075503 | 48 | 106 | 1.0 | 3.0 | 0.00 | 0.00 | 0.00 | 78 | 1012.8 |
| 20260507075003 | 48 | 105 | 1.0 | 3.0 | 0.00 | 0.00 | 0.00 | 79 | 1012.8 |
| 20260507074503 | 48 | 103 | 1.0 | 3.0 | 0.00 | 0.00 | 0.00 | 79 | 1013.0 |
| 20260507074003 | 48 | 101 | 1.0 | 3.0 | 0.00 | 0.00 | 0.00 | 80 | 1012.9 |
| 20260507073503 | 48 | 100 | 1.0 | 3.0 | 0.00 | 0.00 | 0.00 | 80 | 1012.8 |
| 20260507073216 | 47 | 98 | 1.0 | 3.0 | 0.00 | 0.00 | 0.00 | 80 | 1012.8 |
| 20260507072503 | 47 | 99 | 1.0 | 3.0 | 0.00 | 0.00 | 0.00 | 81 | 1013.0 |
| 20260507072003 | 47 | 98 | 1.0 | 3.0 | 0.00 | 0.00 | 0.00 | 81 | 1012.7 |
| 20260507071503 | 47 | 98 | 1.0 | 3.0 | 0.00 | 0.00 | 0.00 | 81 | 1012.9 |
| 20260507071004 | 47 | 106 | 2.0 | 4.0 | 0.00 | 0.00 | 0.00 | 82 | 1012.8 |
| 20260507070716 | 47 | 106 | 2.0 | 4.0 | 0.00 | 0.00 | 0.00 | 82 | 1012.8 |
| 20260507070007 | 47 | 105 | 1.0 | 3.0 | 0.00 | 0.00 | 0.00 | 82 | 1012.8 |
| 20260507065503 | 46 | 102 | 1.0 | 3.0 | 0.00 | 0.00 | 0.00 | 82 | 1012.6 |
| 20260507065003 | 46 | 102 | 1.0 | 3.0 | 0.00 | 0.00 | 0.00 | 83 | 1012.6 |
| 20260507064503 | 46 | 101 | 1.0 | 3.0 | 0.00 | 0.00 | 0.00 | 83 | 1012.6 |
| 20260507064003 | 46 | 102 | 1.0 | 2.0 | 0.00 | 0.00 | 0.00 | 84 | 1012.6 |
| 20260507063503 | 46 | 109 | 1.0 | 2.0 | 0.00 | 0.00 | 0.00 | 84 | 1012.6 |
| 20260507063003 | 45 | 109 | 1.0 | 2.0 | 0.00 | 0.00 | 0.00 | 85 | 1012.6 |
| 20260507062503 | 45 | 100 | 1.0 | 2.0 | 0.00 | 0.00 | 0.00 | 85 | 1012.6 |
| 20260507062212 | 45 | 100 | 1.0 | 2.0 | 0.00 | 0.00 | 0.00 | 85 | 1012.5 |
| 20260507061504 | 45 | 102 | 1.0 | 2.0 | 0.00 | 0.00 | 0.00 | 85 | 1012.4 |
| 20260507061003 | 45 | 95 | 1.0 | 2.0 | 0.00 | 0.00 | 0.00 | 86 | 1012.5 |
| 20260507060503 | 45 | 97 | 1.0 | 3.0 | 0.00 | 0.00 | 0.00 | 86 | 1012.6 |
| 20260507060003 | 44 | 102 | 1.0 | 3.0 | 0.00 | 0.00 | 0.00 | 86 | 1012.5 |
| 20260507055503 | 44 | 102 | 1.0 | 2.0 | 0.00 | 0.00 | 0.00 | 86 | 1012.5 |
| 20260507055003 | 44 | 106 | 1.0 | 2.0 | 0.00 | 0.00 | 0.00 | 86 | 1012.6 |
| 20260507054504 | 44 | 109 | 1.0 | 2.0 | 0.00 | 0.00 | 0.00 | 86 | 1012.5 |
| 20260507054003 | 44 | 105 | 1.0 | 2.0 | 0.00 | 0.00 | 0.00 | 86 | 1012.5 |
| 20260507053503 | 44 | 104 | 1.0 | 2.0 | 0.00 | 0.00 | 0.00 | 86 | 1012.6 |
| 20260507053003 | 44 | 99 | 1.0 | 2.0 | 0.00 | 0.00 | 0.00 | 87 | 1012.6 |
| 20260507052503 | 44 | 95 | 1.0 | 2.0 | 0.00 | 0.00 | 0.00 | 87 | 1012.6 |
| 20260507052003 | 44 | 99 | 1.0 | 2.0 | 0.00 | 0.00 | 0.00 | 87 | 1012.6 |
| 20260507051503 | 44 | 98 | 1.0 | 2.0 | 0.00 | 0.00 | 0.00 | 87 | 1012.6 |
| 20260507051003 | 44 | 96 | 1.0 | 3.0 | 0.00 | 0.00 | 0.00 | 87 | 1012.5 |
| 20260507050503 | 44 | 102 | 1.0 | 3.0 | 0.00 | 0.00 | 0.00 | 87 | 1012.6 |
| 20260507050003 | 44 | 103 | 1.0 | 2.0 | 0.00 | 0.00 | 0.00 | 87 | 1012.6 |
| 20260507045503 | 44 | 105 | 1.0 | 3.0 | 0.00 | 0.00 | 0.00 | 87 | 1012.4 |
| 20260507045004 | 44 | 106 | 1.0 | 3.0 | 0.00 | 0.00 | 0.00 | 87 | 1012.4 |
| 20260507044503 | 43 | 101 | 2.0 | 3.0 | 0.00 | 0.00 | 0.00 | 87 | 1012.3 |
| 20260507044004 | 43 | 94 | 2.0 | 3.0 | 0.00 | 0.00 | 0.00 | 87 | 1012.4 |
| 20260507043715 | 43 | 92 | 1.0 | 3.0 | 0.00 | 0.00 | 0.00 | 88 | 1012.3 |
| 20260507043003 | 43 | 93 | 1.0 | 3.0 | 0.00 | 0.00 | 0.00 | 88 | 1012.2 |
| 20260507042503 | 43 | 92 | 1.0 | 3.0 | 0.00 | 0.00 | 0.00 | 88 | 1012.2 |
| 20260507042214 | 43 | 92 | 1.0 | 3.0 | 0.00 | 0.00 | 0.00 | 88 | 1012.2 |
| 20260507041503 | 43 | 92 | 1.0 | 3.0 | 0.00 | 0.00 | 0.00 | 88 | 1012.2 |
| 20260507041215 | 43 | 93 | 1.0 | 3.0 | 0.00 | 0.00 | 0.00 | 88 | 1012.2 |
| 20260507040503 | 43 | 96 | 1.0 | 2.0 | 0.00 | 0.00 | 0.00 | 88 | 1012.1 |
| 20260507040003 | 43 | 93 | 1.0 | 2.0 | 0.00 | 0.00 | 0.00 | 88 | 1012.4 |
| 20260507035503 | 43 | 88 | 1.0 | 2.0 | 0.00 | 0.00 | 0.00 | 88 | 1012.3 |
| 20260507035003 | 43 | 92 | 1.0 | 2.0 | 0.00 | 0.00 | 0.00 | 88 | 1012.2 |
| 20260507034503 | 43 | 96 | 1.0 | 2.0 | 0.00 | 0.00 | 0.00 | 88 | 1012.2 |
| 20260507034213 | 43 | 93 | 1.0 | 2.0 | 0.00 | 0.00 | 0.00 | 88 | 1012.3 |
| 20260507033503 | 43 | 95 | 1.0 | 2.0 | 0.00 | 0.00 | 0.00 | 88 | 1012.4 |
| 20260507033003 | 43 | 97 | 1.0 | 2.0 | 0.00 | 0.00 | 0.00 | 88 | 1012.2 |
| 20260507032504 | 43 | 98 | 1.0 | 2.0 | 0.00 | 0.00 | 0.00 | 88 | 1012.3 |
| 20260507032003 | 43 | 96 | 1.0 | 2.0 | 0.00 | 0.00 | 0.00 | 88 | 1012.4 |
| 20260507031712 | 43 | 95 | 1.0 | 3.0 | 0.00 | 0.00 | 0.00 | 88 | 1012.5 |
| 20260507031003 | 43 | 98 | 2.0 | 3.0 | 0.00 | 0.00 | 0.00 | 88 | 1012.4 |
| 20260507030504 | 43 | 99 | 2.0 | 3.0 | 0.00 | 0.00 | 0.00 | 88 | 1012.6 |
| 20260507030003 | 43 | 93 | 2.0 | 4.0 | 0.00 | 0.00 | 0.00 | 88 | 1012.5 |
| 20260507025503 | 43 | 93 | 2.0 | 4.0 | 0.00 | 0.00 | 0.00 | 87 | 1012.7 |
| 20260507025003 | 43 | 98 | 2.0 | 4.0 | 0.00 | 0.00 | 0.00 | 87 | 1012.6 |
| 20260507024715 | 43 | 99 | 2.0 | 5.0 | 0.00 | 0.00 | 0.00 | 87 | 1012.7 |
| 20260507024003 | 43 | 90 | 2.0 | 5.0 | 0.00 | 0.00 | 0.00 | 87 | 1012.5 |
| 20260507023503 | 44 | 93 | 2.0 | 3.0 | 0.00 | 0.00 | 0.00 | 87 | 1012.4 |
| 20260507023003 | 44 | 92 | 1.0 | 3.0 | 0.00 | 0.00 | 0.00 | 87 | 1012.7 |
| 20260507022503 | 44 | 95 | 1.0 | 3.0 | 0.00 | 0.00 | 0.00 | 87 | 1012.7 |
| 20260507022004 | 44 | 96 | 1.0 | 3.0 | 0.00 | 0.00 | 0.00 | 87 | 1012.5 |
| 20260507021504 | 44 | 91 | 2.0 | 3.0 | 0.00 | 0.00 | 0.00 | 87 | 1012.5 |
| 20260507021216 | 44 | 92 | 2.0 | 3.0 | 0.00 | 0.00 | 0.00 | 87 | 1012.5 |
| 20260507020503 | 44 | 97 | 1.0 | 3.0 | 0.00 | 0.00 | 0.00 | 87 | 1012.5 |
| 20260507020217 | 44 | 102 | 1.0 | 3.0 | 0.00 | 0.00 | 0.00 | 87 | 1012.5 |
| 20260507015503 | 44 | 100 | 1.0 | 2.0 | 0.00 | 0.00 | 0.00 | 87 | 1012.3 |
| 20260507015004 | 44 | 100 | 1.0 | 3.0 | 0.00 | 0.00 | 0.00 | 87 | 1012.6 |
| 20260507014503 | 44 | 96 | 1.0 | 3.0 | 0.00 | 0.00 | 0.00 | 87 | 1012.4 |
| 20260507014003 | 44 | 91 | 2.0 | 3.0 | 0.00 | 0.00 | 0.00 | 87 | 1012.5 |
| 20260507013503 | 44 | 85 | 1.0 | 4.0 | 0.00 | 0.00 | 0.00 | 87 | 1012.6 |
| 20260507013003 | 44 | 91 | 1.0 | 4.0 | 0.00 | 0.00 | 0.00 | 87 | 1012.5 |
| 20260507012503 | 43 | 97 | 1.0 | 2.0 | 0.00 | 0.00 | 0.00 | 87 | 1012.5 |
| 20260507012003 | 43 | 94 | 1.0 | 2.0 | 0.00 | 0.00 | 0.00 | 87 | 1012.7 |
| 20260507011503 | 43 | 91 | 1.0 | 2.0 | 0.00 | 0.00 | 0.00 | 87 | 1012.6 |
| 20260507011003 | 43 | 81 | 1.0 | 2.0 | 0.00 | 0.00 | 0.00 | 87 | 1012.7 |
| 20260507010715 | 44 | 77 | 1.0 | 2.0 | 0.00 | 0.00 | 0.00 | 87 | 1012.8 |
| 20260507010004 | 43 | 94 | 1.0 | 2.0 | 0.00 | 0.00 | 0.00 | 87 | 1012.8 |
| 20260507005716 | 44 | 96 | 1.0 | 3.0 | 0.00 | 0.00 | 0.00 | 86 | 1012.9 |
| 20260507005003 | 44 | 92 | 2.0 | 3.0 | 0.00 | 0.00 | 0.00 | 86 | 1012.5 |
| 20260507004717 | 44 | 94 | 2.0 | 3.0 | 0.00 | 0.00 | 0.00 | 86 | 1012.6 |
| 20260507004214 | 44 | 96 | 1.0 | 3.0 | 0.00 | 0.00 | 0.00 | 86 | 1012.7 |
| 20260507003503 | 44 | 94 | 2.0 | 4.0 | 0.00 | 0.00 | 0.00 | 86 | 1012.8 |
| 20260507003003 | 44 | 88 | 2.0 | 3.0 | 0.00 | 0.00 | 0.00 | 86 | 1012.9 |
| 20260507002503 | 44 | 90 | 2.0 | 3.0 | 0.00 | 0.00 | 0.00 | 86 | 1012.7 |
| 20260507002003 | 44 | 96 | 1.0 | 3.0 | 0.00 | 0.00 | 0.00 | 86 | 1012.8 |
| 20260507001503 | 44 | 100 | 1.0 | 3.0 | 0.00 | 0.00 | 0.00 | 86 | 1012.8 |
| 20260507001212 | 44 | 98 | 1.0 | 3.0 | 0.00 | 0.00 | 0.00 | 86 | 1012.9 |
| 20260507000715 | 44 | 99 | 1.0 | 3.0 | 0.00 | 0.00 | 0.00 | 86 | 1012.9 |
| 20260507000004 | 44 | 103 | 2.0 | 3.0 | 0.00 | 0.00 | 0.00 | 85 | 1012.6 |
| 20260506235503 | 44 | 103 | 1.0 | 3.0 | 0.00 | 0.00 | 0.00 | 85 | 1012.9 |
| 20260506235003 | 44 | 100 | 1.0 | 3.0 | 0.00 | 0.00 | 0.00 | 85 | 1012.7 |
| 20260506234504 | 44 | 97 | 1.0 | 4.0 | 0.00 | 0.00 | 0.00 | 85 | 1012.9 |
| 20260506234003 | 44 | 98 | 1.0 | 4.0 | 0.00 | 0.00 | 0.00 | 85 | 1012.9 |
| 20260506233713 | 44 | 100 | 1.0 | 3.0 | 0.00 | 0.00 | 0.00 | 84 | 1012.7 |
| 20260506233216 | 44 | 96 | 1.0 | 3.0 | 0.00 | 0.00 | 0.00 | 84 | 1012.7 |
| 20260506232714 | 45 | 93 | 1.0 | 3.0 | 0.00 | 0.00 | 0.00 | 84 | 1012.9 |
| 20260506232003 | 45 | 94 | 1.0 | 3.0 | 0.00 | 0.00 | 0.00 | 84 | 1012.9 |
| 20260506231503 | 45 | 98 | 1.0 | 3.0 | 0.00 | 0.00 | 0.00 | 84 | 1012.9 |
| 20260506231003 | 45 | 92 | 1.0 | 3.0 | 0.00 | 0.00 | 0.00 | 84 | 1012.7 |
| 20260506230716 | 45 | 92 | 1.0 | 3.0 | 0.00 | 0.00 | 0.00 | 84 | 1012.9 |
| 20260506230219 | 45 | 92 | 1.0 | 3.0 | 0.00 | 0.00 | 0.00 | 83 | 1012.9 |
| 20260506225717 | 45 | 98 | 1.0 | 3.0 | 0.00 | 0.00 | 0.00 | 83 | 1012.9 |
| 20260506225215 | 45 | 95 | 1.0 | 4.0 | 0.00 | 0.00 | 0.00 | 83 | 1013.1 |
| 20260506224503 | 45 | 95 | 1.0 | 4.0 | 0.00 | 0.00 | 0.00 | 83 | 1012.9 |
| 20260506224216 | 45 | 98 | 1.0 | 3.0 | 0.00 | 0.00 | 0.00 | 83 | 1012.9 |
| 20260506223714 | 45 | 97 | 1.0 | 3.0 | 0.00 | 0.00 | 0.00 | 83 | 1012.9 |
| 20260506223217 | 45 | 95 | 1.0 | 3.0 | 0.00 | 0.00 | 0.00 | 83 | 1013.0 |
| 20260506222503 | 45 | 101 | 2.0 | 4.0 | 0.00 | 0.00 | 0.00 | 83 | 1012.9 |
| 20260506222003 | 45 | 95 | 2.0 | 4.0 | 0.00 | 0.00 | 0.00 | 82 | 1013.0 |
| 20260506221716 | 45 | 88 | 2.0 | 4.0 | 0.00 | 0.00 | 0.00 | 82 | 1013.0 |
| 20260506221003 | 46 | 92 | 1.0 | 4.0 | 0.00 | 0.00 | 0.00 | 82 | 1012.9 |
| 20260506220503 | 46 | 99 | 2.0 | 4.0 | 0.00 | 0.00 | 0.00 | 82 | 1012.9 |
| 20260506220214 | 46 | 102 | 2.0 | 3.0 | 0.00 | 0.00 | 0.00 | 81 | 1013.0 |
| 20260506215503 | 46 | 100 | 2.0 | 3.0 | 0.00 | 0.00 | 0.00 | 81 | 1013.0 |
| 20260506215004 | 46 | 107 | 2.0 | 4.0 | 0.00 | 0.00 | 0.00 | 80 | 1012.8 |
| 20260506214503 | 46 | 101 | 2.0 | 4.0 | 0.00 | 0.00 | 0.00 | 80 | 1012.7 |
| 20260506214216 | 46 | 98 | 2.0 | 4.0 | 0.00 | 0.00 | 0.00 | 80 | 1012.7 |
| 20260506213503 | 46 | 101 | 2.0 | 3.0 | 0.00 | 0.00 | 0.00 | 79 | 1012.8 |
| 20260506213003 | 46 | 107 | 2.0 | 3.0 | 0.00 | 0.00 | 0.00 | 79 | 1012.7 |
| 20260506212503 | 46 | 105 | 2.0 | 3.0 | 0.00 | 0.00 | 0.00 | 78 | 1012.4 |
| 20260506212003 | 47 | 102 | 1.0 | 3.0 | 0.00 | 0.00 | 0.00 | 78 | 1012.4 |
| 20260506211503 | 47 | 100 | 1.0 | 3.0 | 0.00 | 0.00 | 0.00 | 77 | 1012.2 |
| 20260506211003 | 47 | 101 | 1.0 | 3.0 | 0.00 | 0.00 | 0.00 | 77 | 1012.4 |
| 20260506210503 | 47 | 103 | 1.0 | 3.0 | 0.00 | 0.00 | 0.00 | 76 | 1012.1 |
| 20260506210003 | 47 | 102 | 1.0 | 3.0 | 0.00 | 0.00 | 0.00 | 76 | 1012.2 |
| 20260506205503 | 47 | 102 | 1.0 | 2.0 | 0.00 | 0.00 | 0.00 | 75 | 1012.3 |
| 20260506205003 | 48 | 106 | 1.0 | 3.0 | 0.00 | 0.00 | 0.00 | 73 | 1012.1 |
| 20260506204714 | 48 | 102 | 1.0 | 3.0 | 0.00 | 0.00 | 0.00 | 73 | 1012.2 |
| 20260506204003 | 49 | 95 | 2.0 | 4.0 | 0.00 | 0.00 | 0.00 | 73 | 1012.2 |
| 20260506203715 | 49 | 92 | 1.0 | 4.0 | 0.00 | 0.00 | 0.00 | 73 | 1012.1 |
| 20260506203003 | 49 | 94 | 1.0 | 3.0 | 0.00 | 0.00 | 0.00 | 72 | 1012.2 |
| 20260506202503 | 49 | 102 | 1.0 | 3.0 | 0.00 | 0.00 | 0.00 | 72 | 1012.2 |
| 20260506202004 | 49 | 108 | 1.0 | 3.0 | 0.00 | 0.00 | 0.00 | 72 | 1012.0 |
| 20260506201717 | 49 | 109 | 1.0 | 3.0 | 0.00 | 0.00 | 0.00 | 71 | 1012.1 |
| 20260506201003 | 49 | 104 | 2.0 | 4.0 | 0.00 | 0.00 | 0.00 | 70 | 1011.9 |
| 20260506200503 | 50 | 108 | 2.0 | 4.0 | 0.00 | 0.00 | 0.00 | 69 | 1011.9 |
| 20260506200004 | 50 | 109 | 1.0 | 3.0 | 0.00 | 0.00 | 0.00 | 69 | 1011.8 |
| 20260506195714 | 50 | 106 | 1.0 | 4.0 | 0.00 | 0.00 | 0.00 | 68 | 1011.7 |
| 20260506195003 | 51 | 108 | 1.0 | 4.0 | 0.00 | 0.00 | 0.00 | 67 | 1011.8 |
| 20260506194503 | 51 | 101 | 1.0 | 3.0 | 0.00 | 0.00 | 0.00 | 66 | 1011.9 |
| 20260506194213 | 51 | 95 | 1.0 | 3.0 | 0.00 | 0.00 | 0.00 | 65 | 1011.8 |
| 20260506193503 | 52 | 87 | 1.0 | 5.0 | 0.00 | 0.00 | 0.00 | 63 | 1011.6 |
| 20260506193003 | 52 | 89 | 2.0 | 5.0 | 0.00 | 0.00 | 0.00 | 62 | 1011.8 |
| 20260506192717 | 52 | 94 | 2.0 | 4.0 | 0.00 | 0.00 | 0.00 | 61 | 1011.8 |
| 20260506192003 | 52 | 100 | 1.0 | 4.0 | 0.00 | 0.00 | 0.00 | 59 | 1011.7 |
| 20260506191717 | 53 | 104 | 1.0 | 3.0 | 0.00 | 0.00 | 0.00 | 58 | 1011.5 |
| 20260506191003 | 53 | 104 | 1.0 | 3.0 | 0.00 | 0.00 | 0.00 | 57 | 1011.7 |
| 20260506190503 | 53 | 98 | 2.0 | 4.0 | 0.00 | 0.00 | 0.00 | 56 | 1011.6 |
| 20260506190216 | 53 | 99 | 2.0 | 4.0 | 0.00 | 0.00 | 0.00 | 57 | 1011.3 |
| 20260506185503 | 54 | 87 | 2.0 | 4.0 | 0.00 | 0.00 | 0.00 | 55 | 1011.5 |
| 20260506185003 | 54 | 84 | 2.0 | 4.0 | 0.00 | 0.00 | 0.00 | 54 | 1011.4 |
| 20260506184503 | 54 | 87 | 2.0 | 5.0 | 0.00 | 0.00 | 0.00 | 54 | 1011.4 |
| 20260506184003 | 55 | 84 | 2.0 | 5.0 | 0.00 | 0.00 | 0.00 | 52 | 1011.6 |
| 20260506183505 | 55 | 84 | 1.0 | 5.0 | 0.00 | 0.00 | 0.00 | 50 | 1011.3 |
| 20260506183004 | 55 | 77 | 1.0 | 2.0 | 0.00 | 0.00 | 0.00 | 49 | 1011.1 |
| 20260506182717 | 55 | 73 | 1.0 | 4.0 | 0.00 | 0.00 | 0.00 | 49 | 1011.3 |
| 20260506182003 | 56 | 68 | 1.0 | 4.0 | 0.00 | 0.00 | 0.00 | 48 | 1011.1 |
| 20260506181504 | 56 | 85 | 1.0 | 4.0 | 0.00 | 0.00 | 0.00 | 47 | 1010.9 |
| 20260506181216 | 56 | 89 | 1.0 | 4.0 | 0.00 | 0.00 | 0.00 | 47 | 1010.9 |
| 20260506180714 | 56 | 95 | 1.0 | 4.0 | 0.00 | 0.00 | 0.00 | 47 | 1010.9 |
| 20260506180004 | 56 | 103 | 1.0 | 3.0 | 0.00 | 0.00 | 0.00 | 47 | 1010.7 |
| 20260506175503 | 56 | 108 | 1.0 | 3.0 | 0.00 | 0.00 | 0.00 | 47 | 1010.7 |
| 20260506175213 | 56 | 101 | 1.0 | 3.0 | 0.00 | 0.00 | 0.00 | 47 | 1010.9 |
| 20260506174503 | 56 | 91 | 1.0 | 4.0 | 0.00 | 0.00 | 0.00 | 47 | 1011.0 |
| 20260506174004 | 56 | 99 | 1.0 | 4.0 | 0.00 | 0.00 | 0.00 | 46 | 1010.9 |
| 20260506173503 | 57 | 108 | 1.0 | 4.0 | 0.00 | 0.00 | 0.00 | 46 | 1010.8 |
| 20260506173003 | 57 | 99 | 1.0 | 4.0 | 0.00 | 0.00 | 0.00 | 47 | 1010.7 |
| 20260506172503 | 57 | 109 | 1.0 | 4.0 | 0.00 | 0.00 | 0.00 | 45 | 1010.7 |
| 20260506172216 | 58 | 113 | 1.0 | 4.0 | 0.00 | 0.00 | 0.00 | 44 | 1010.6 |
| 20260506171503 | 57 | 66 | 1.0 | 3.0 | 0.00 | 0.00 | 0.00 | 44 | 1010.6 |
| 20260506171003 | 56 | 13 | 1.0 | 3.0 | 0.00 | 0.00 | 0.00 | 46 | 1010.6 |
| 20260506170503 | 56 | 29 | 1.0 | 4.0 | 0.00 | 0.00 | 0.00 | 44 | 1010.5 |
| 20260506170004 | 56 | 57 | 2.0 | 5.0 | 0.00 | 0.00 | 0.00 | 45 | 1010.6 |
| 20260506165503 | 57 | 84 | 2.0 | 5.0 | 0.00 | 0.00 | 0.00 | 43 | 1010.5 |
| 20260506165003 | 57 | 89 | 2.0 | 4.0 | 0.00 | 0.00 | 0.00 | 43 | 1010.6 |
| 20260506164504 | 57 | 350 | 1.0 | 4.0 | 0.00 | 0.00 | 0.00 | 44 | 1010.5 |
| 20260506164004 | 57 | 30 | 1.0 | 4.0 | 0.00 | 0.00 | 0.00 | 45 | 1010.5 |
| 20260506163503 | 57 | 58 | 1.0 | 3.0 | 0.00 | 0.00 | 0.00 | 44 | 1010.4 |
| 20260506163004 | 57 | 110 | 1.0 | 3.0 | 0.00 | 0.00 | 0.00 | 46 | 1010.4 |
| 20260506162503 | 58 | 118 | 1.0 | 3.0 | 0.00 | 0.00 | 0.00 | 43 | 1010.5 |
| 20260506162003 | 58 | 22 | 1.0 | 6.0 | 0.00 | 0.00 | 0.00 | 43 | 1010.5 |
| 20260506161503 | 57 | 14 | 2.0 | 6.0 | 0.00 | 0.00 | 0.00 | 45 | 1010.6 |
| 20260506161003 | 58 | 94 | 1.0 | 5.0 | 0.00 | 0.00 | 0.00 | 44 | 1010.5 |
| 20260506160503 | 60 | 115 | 1.0 | 5.0 | 0.00 | 0.00 | 0.00 | 42 | 1010.5 |
| 20260506160003 | 58 | 40 | 1.0 | 5.0 | 0.00 | 0.00 | 0.00 | 43 | 1010.5 |
| 20260506155503 | 60 | 81 | 2.0 | 5.0 | 0.00 | 0.00 | 0.00 | 42 | 1010.6 |
| 20260506155214 | 58 | 56 | 2.0 | 5.0 | 0.00 | 0.00 | 0.00 | 43 | 1010.8 |
| 20260506154503 | 58 | 33 | 1.0 | 4.0 | 0.00 | 0.00 | 0.00 | 43 | 1010.7 |
| 20260506154003 | 57 | 47 | 1.0 | 4.0 | 0.00 | 0.00 | 0.00 | 43 | 1010.5 |
| 20260506153503 | 57 | 37 | 1.0 | 3.0 | 0.00 | 0.00 | 0.00 | 44 | 1010.6 |
| 20260506153003 | 57 | 12 | 1.0 | 4.0 | 0.00 | 0.00 | 0.00 | 45 | 1010.8 |
| 20260506152503 | 58 | 38 | 1.0 | 4.0 | 0.00 | 0.00 | 0.00 | 45 | 1010.6 |
| 20260506152003 | 60 | 94 | 1.0 | 4.0 | 0.00 | 0.00 | 0.00 | 41 | 1010.5 |
| 20260506151503 | 58 | 9 | 1.0 | 4.0 | 0.00 | 0.00 | 0.00 | 43 | 1010.7 |
| 20260506151003 | 56 | 49 | 1.0 | 4.0 | 0.00 | 0.00 | 0.00 | 45 | 1010.7 |
| 20260506150503 | 55 | 95 | 1.0 | 3.0 | 0.00 | 0.00 | 0.00 | 47 | 1010.6 |
| 20260506150004 | 57 | 72 | 1.0 | 5.0 | 0.00 | 0.00 | 0.00 | 45 | 1010.9 |
| 20260506145717 | 57 | 107 | 2.0 | 5.0 | 0.00 | 0.00 | 0.00 | 46 | 1010.9 |
| 20260506145003 | 59 | 117 | 2.0 | 5.0 | 0.00 | 0.00 | 0.00 | 44 | 1010.8 |
| 20260506144503 | 57 | 102 | 2.0 | 4.0 | 0.00 | 0.00 | 0.00 | 45 | 1010.9 |